This demonstration page uses our WeatherBlox Daily Observations layout. Learn more.

39.92423, -83.80882

Hourly Observations for June 21, 2019

Temp ( °F °C ) Dew Point ( °F °C ) Humidity (%) Winds ( mph kmh ) Pressure ( in mb ) Visibility ( mi km ) Precip ( " mm )
12:56 am 00:56 Cloudy 63 17.2 62 16.7 97 97 NW 9 15 29.85 1011 10 16.0934 0 0
1:33 am 01:33 Partly Cloudy 63 17 61 16 94 94 NNW 8 13 29.84 1011 10 16.0934 0 0
1:56 am 01:56 Clear 61 16.1 60 15.6 97 97 NW 8 13 29.86 1011 10 16.0934 0 0
2:56 am 02:56 Mostly Clear 61 16.1 60 15.6 97 97 NW 7 11 29.88 1012 10 16.0934 0 0
3:47 am 03:47 Mostly Cloudy 61 16 61 16 100 100 NW 5 7 29.88 1012 10 16.0934 0 0
3:56 am 03:56 Mostly Cloudy 60 15.6 60 15.6 100 100 WNW 7 11 29.89 1012 10 16.0934 0 0
4:23 am 04:23 Cloudy 61 16 61 16 100 100 WNW 9 15 29.9 1012 10 16.0934 0 0
4:47 am 04:47 Partly Cloudy 59 15 59 15 100 100 NW 6 9 29.9 1013 10 16.0934 0 0
4:56 am 04:56 Mostly Clear 59 15 59 15 100 100 NW 6 9 29.91 1013 10 16.0934 0 0
6:56 am 06:56 Sunny 58 14.4 58 14.4 100 100 WSW 5 7 29.96 1015 10 16.0934 0 0
7:56 am 07:56 Sunny 61 16.1 59 15 93 93 NW 8 13 29.99 1016 10 16.0934 0 0
8:56 am 08:56 Sunny 64 17.8 57 13.9 78 78 NNW 8 13 30.01 1016 10 16.0934 0 0
9:56 am 09:56 Sunny 67 19.4 56 13.3 68 68 NNW 7 11 30.02 1017 10 16.0934 0 0
10:56 am 10:56 Sunny 69 20.6 55 12.8 61 61 NNE 8 13 30.02 1017 10 16.0934 0 0
12:56 pm 12:56 Sunny 72 22.2 55 12.8 55 55 VRB 3 6 30.04 1017 10 16.0934 0 0
1:56 pm 13:56 Mostly Sunny 73 22.8 55 12.8 53 53 N 6 9 30.03 1017 10 16.0934 0 0
2:56 pm 14:56 Sunny 75 23.9 56 13.3 52 52 Calm 30.02 1017 10 16.0934 0 0
3:56 pm 15:56 Sunny 76 24.4 55 12.8 48 48 WNW 5 7 30.01 1016 10 16.0934 0 0
4:56 pm 16:56 Sunny 74 23.3 55 12.8 52 52 Calm 30 1016 10 16.0934 0 0
5:56 pm 17:56 Partly Cloudy 76 24.4 56 13.3 50 50 VRB 3 6 30 1016 10 16.0934 0 0
6:56 pm 18:56 Sunny 75 23.9 57 13.9 54 54 WSW 5 7 30.01 1016 10 16.0934 0 0
7:56 pm 19:56 Partly Cloudy 74 23.3 59 15 60 60 SW 3 6 30.01 1016 10 16.0934 0 0
8:56 pm 20:56 Sunny 69 20.6 63 17.2 81 81 ESE 6 9 29.97 1015 10 16.0934 0 0
9:56 pm 21:56 Clear 68 20 60 15.6 76 76 ESE 6 9 29.96 1015 10 16.0934 0 0
10:56 pm 22:56 Cloudy 68 20 62 16.7 81 81 Calm 29.99 1016 10 16.0934 0 0
11:56 pm 23:56 Cloudy with Light Rain 67 19.4 63 17.2 87 87 E 8 13 30 1016 10 16.0934 0 0.0254

Powered by AerisWeather